Location: Carri�res
(48.9069°N, 2.1792°E)
Time: 13:34:55
(UTC+00:00)

Cosmos 1486 Rocket - Pass Details

Date: 17 January 2021
Orbit: 759 x 783 km, 74.1° (Epoch: 25 February)

Event Time Altitude Azimuth Distance (km) Brightness Sun altitude
Rises 17:33:52 0° 208° (SSW) 3,229 8.0 -11.0°
Reaches altitude 10° 17:36:15 10° 211° (SSW) 2,303 7.2 -11.4°
Maximum altitude 17:41:28 70° 295° (WNW) 814 4.3 -12.2°
Drops below altitude 10° 17:46:41 10° 20° (NNE) 2,306 6.1 -13.0°
Enters shadow 17:48:07 - 21° (NNE) 2,861 6.6 -13.2°
